Station BGXN3 - Greenland, Great Bay Reserve, NH Image indicating link to RSS feed of recent meteorological observations for station BGXN3


Conditions at BGXN3 as of
(10:45 am EDT)
1445 GMT on 04/18/2024:
Note: This report is more than two hours old
     

Click on the graph icon in the table below to see a time series plot of the last five days of that observation.

5-day plot - Wind Direction Wind Direction (WDIR): E ( 90 deg true )
5-day plot - Wind Speed Wind Speed (WSPD): 5.1 kts
5-day plot - Atmospheric Pressure Atmospheric Pressure (PRES):30.21 in
5-day plot - Air Temperature Air Temperature (ATMP): 49.6 °F
5-day plot - Dew Point Dew Point (DEWP): 35.6 °F
5-day plot - Wind Chill Wind Chill (CHILL): 47.3 °F
5-day plot -  Wind Speed, Wind Gust and Atmospheric Pressure Combined plot of Wind Speed, Gust, and Air Pressure
Previous observations
TIME
(EDT)
5-day plot - Wind Direction
WDIR
 
5-day plot - Wind Speed
WSPD
kts
5-day plot - Wind Gust
GST
kts
5-day plot - Wave Height
WVHT
ft
5-day plot - Dominant Wave Period
DPD
sec
5-day plot - Average Wave Period
APD
sec
5-day plot - Mean Wave Direction
MWD
 
5-day plot - Atmospheric Pressure
PRES
in
5-day plot - Pressure Tendency
PTDY
in
5-day plot - Air Temperature
ATMP
°F
5-day plot - Water Temperature
WTMP
°F
5-day plot - Dew Point
DEWP
°F
5-day plot - Salinity
SAL
psu
5-day plot - Visibility
VIS
nmi
5-day plot - Tide (above MLLW)
TIDE
ft
2024-04-18 10:30 am E 5.1-----30.21- 48.9- 34.9---
2024-04-18 10:15 am E 5.1-----30.21- 48.4- 34.9---
2024-04-18 10:00 am E 6.0-----30.21+0.03 47.5- 34.9---
2024-04-18 09:45 am E 7.0-----30.21- 46.9- 35.1---
2024-04-18 09:30 am E 8.0-----30.21- 46.8- 34.2---
2024-04-18 09:15 am E 7.0-----30.21- 46.6- 34.0---
2024-04-18 09:00 am E 7.0-----30.21+0.06 46.0- 34.7---
2024-04-18 08:45 am E 6.0-----30.21- 45.7- 35.4---
2024-04-18 08:30 am E 6.0-----30.21- 45.0- 36.1---
2024-04-18 08:15 am E 4.1-----30.21- 44.8- 37.0---
2024-04-18 08:00 am E 5.1-----30.21+0.06 44.4- 37.4---
2024-04-18 07:45 amENE 4.1-----30.21- 44.4- 37.8---
2024-04-18 07:30 amENE 2.9-----30.21- 44.2- 37.9---
2024-04-18 07:15 amENE 4.1-----30.18- 44.1- 37.8---
2024-04-18 07:00 amENE 4.1-----30.18+0.03 43.9- 37.8---
2024-04-18 06:45 am E 4.1-----30.18- 43.9- 37.2---
2024-04-18 06:30 amENE 4.1-----30.18- 44.1- 36.3---
2024-04-18 06:15 amENE 5.1-----30.18- 44.1- 35.6---
2024-04-18 06:00 amENE 2.9-----30.15+0.00 43.5- 35.8---
2024-04-18 05:45 am E 2.9-----30.15- 43.0- 36.0---
2024-04-18 05:30 am E 2.9-----30.15- 43.2- 36.1---
2024-04-18 05:15 am E 4.1-----30.15- 43.5- 37.2---
2024-04-18 05:00 amENE 5.1-----30.15-0.03 43.5- 37.8---
2024-04-18 04:45 amENE 4.1-----30.15- 43.3- 38.3---
2024-04-18 04:30 amENE 5.1-----30.15- 43.2- 38.7---
2024-04-18 04:15 amENE 4.1-----30.15- 43.0- 38.8---
2024-04-18 04:00 amENE 5.1-----30.15-0.03 42.8- 38.3---
2024-04-18 03:45 amENE 5.1-----30.15- 42.8- 37.8---
2024-04-18 03:30 amENE 5.1-----30.15- 42.6- 36.7---
2024-04-18 03:15 amENE 4.1-----30.15- 42.8- 36.1---
2024-04-18 03:00 amENE 4.1-----30.15-0.06 42.8- 36.1---
2024-04-18 02:45 amENE 2.9-----30.15- 41.2- 35.8---
2024-04-18 02:30 am E 1.9-----30.18- 40.3- 36.1---
2024-04-18 02:15 amENE 1.0-----30.15- 40.1- 36.0---
2024-04-18 02:00 amENE 1.0-----30.18+0.00 40.1- 36.0---
2024-04-18 01:45 am NE 1.0-----30.18- 40.1- 35.8---
2024-04-18 01:30 am- 0.0-----30.18- 40.5- 36.0---
2024-04-18 01:15 am- 0.0-----30.18- 40.8- 36.1---
2024-04-18 01:00 amENE 1.9-----30.18+0.00 41.2- 36.1---
2024-04-18 12:45 amESE 1.0-----30.18- 41.4- 36.0---
2024-04-18 12:30 amNNE 1.0-----30.21- 41.7- 35.4---
2024-04-18 12:15 am- 0.0-----30.21- 41.9- 35.6---
2024-04-18 12:00 am- 0.0-----30.21+0.03 42.4- 35.8---
2024-04-17 11:45 pm- 0.0-----30.18- 43.3- 36.0---
2024-04-17 11:30 pm E 1.9-----30.18- 44.2- 35.8---
2024-04-17 11:15 pmESE 1.9-----30.18- 44.4- 35.6---
2024-04-17 11:00 pmESE 1.9-----30.18+0.03 43.9- 35.6---
2024-04-17 10:45 pm E 1.9-----30.18- 43.5- 35.2---
2024-04-17 10:30 pmESE 1.9-----30.18- 43.9- 35.2---
2024-04-17 10:15 pmSSE 1.0-----30.18- 43.5- 34.9---
2024-04-17 10:00 pmSSE 1.0-----30.18+0.03 43.5- 35.2---
2024-04-17 09:45 pmSSE 1.0-----30.18- 43.3- 35.4---
2024-04-17 09:30 pmESE 1.0-----30.18- 43.3- 35.4---
2024-04-17 09:15 pmESE 1.0-----30.18- 43.3- 35.4---
2024-04-17 09:00 pm SE 1.0-----30.18+0.03 43.3- 35.1---
2024-04-17 08:45 pmSSE 1.9-----30.18- 43.3- 35.1---
2024-04-17 08:30 pm SE 1.0-----30.15- 43.2- 34.5---
2024-04-17 08:15 pm SE 1.9-----30.15- 43.2- 34.2---
2024-04-17 08:00 pm SE 1.9-----30.15+0.00 43.2- 33.8---
2024-04-17 07:45 pm SE 1.9-----30.15- 43.2- 33.4---
2024-04-17 07:30 pm SE 1.9-----30.15- 43.3- 34.0---
2024-04-17 07:15 pm SE 2.9-----30.15- 43.7- 34.3---
2024-04-17 07:00 pmSSE 4.1-----30.15+0.00 43.9- 34.5---
2024-04-17 06:45 pm SE 4.1-----30.15- 43.9- 34.5---
2024-04-17 06:30 pm SE 5.1-----30.15- 44.1- 34.3---
2024-04-17 06:15 pm SE 5.1-----30.15- 44.2- 34.5---
2024-04-17 06:00 pm SE 5.1-----30.15+0.00 44.8- 34.5---
2024-04-17 05:45 pmESE 5.1-----30.15- 45.1- 34.2---
2024-04-17 05:30 pmESE 6.0-----30.15- 45.3- 33.6---
2024-04-17 05:15 pmESE 5.1-----30.15- 46.0- 33.8---
2024-04-17 05:00 pmESE 5.1-----30.15-0.03 46.0- 34.2---
2024-04-17 04:45 pm SE 5.1-----30.12- 45.7- 33.1---
2024-04-17 04:30 pmESE 5.1-----30.15- 46.9- 33.4---
2024-04-17 04:15 pmESE 5.1-----30.15- 46.8- 33.8---
2024-04-17 04:00 pmESE 6.0-----30.15-0.03 47.8- 34.0---
2024-04-17 03:45 pmESE 6.0-----30.15- 48.7- 34.3---
2024-04-17 03:30 pmESE 6.0-----30.15- 50.0- 34.7---
2024-04-17 03:15 pm SE 5.1-----30.15- 50.9- 35.1---
2024-04-17 03:00 pm SE 6.0-----30.15-0.06 50.9- 34.5---
2024-04-17 02:45 pm SE 5.1-----30.15- 51.4- 34.5---
2024-04-17 02:30 pm SE 5.1-----30.15- 50.9- 34.0---
2024-04-17 02:15 pmESE 6.0-----30.15- 50.7- 32.9---
2024-04-17 02:00 pmSSE 6.0-----30.18-0.03 50.5- 33.3---
2024-04-17 01:45 pm SE 6.0-----30.15- 51.4- 32.5---
2024-04-17 01:30 pm SE 5.1-----30.18- 52.2- 31.1---
2024-04-17 01:15 pmESE 5.1-----30.18- 51.6- 31.1---
2024-04-17 01:00 pm SE 5.1-----30.18-0.06 50.5- 29.7---
2024-04-17 12:45 pmSSE 5.1-----30.18- 50.2- 29.3---
2024-04-17 12:30 pm SE 5.1-----30.18- 51.1- 29.5---
2024-04-17 12:15 pmSSE 5.1-----30.18- 50.5- 28.4---
2024-04-17 12:00 pm SE 4.1-----30.21-0.03 50.7- 28.0---